Temp
12 12 12 13 13 13 13 13 13 13 13 13 13 13 13 12 12 12 12 12 12 12 12 12 12 12 12 12 12 12 12 12 12 12 12 12 12 12 12 13 13 13 13 12 12 12 12 12 12 12 12 11 11 11 11 11 11 11 11 11 11 11 11 11 11 11 11 10 10
12 12 12 13 13 13 13 13 13 13 13 13 13 13 13 13 13 13 13 12 12 12 12 12 12 12 12 12 12 12 12 12 12 12 12 12 12 12 13 13 13 13 12 12 12 12 12 12 12 12 12 11 11 11 11 11 11 11 11 11 11 11 11 11 11 10 10 10 10
12 12 12 12 12 13 13 13 13 13 13 13 13 13 13 13 13 13 13 13 13 13 13 12 12 12 12 12 12 12 12 12 12 12 12 12 12 13 13 13 13 13 12 12 12 12 12 12 12 11 11 11 11 11 11 11 11 11 11 11 11 11 11 11 10 10 10 10 9
12 12 12 12 12 12 13 13 13 13 13 13 13 13 13 13 13 13 13 13 13 13 13 13 13 13 13 12 12 12 12 12 12 12 12 12 12 13 13 13 13 12 12 12 12 12 12 11 11 11 11 11 11 11 11 11 11 11 11 11 11 11 11 10 10 10 10 9 9
12 12 12 12 12 12 12 13 13 13 13 13 13 13 13 13 13 13 13 13 13 13 13 13 13 13 13 13 12 12 12 12 12 12 12 12 12 13 13 13 12 12 12 12 12 12 12 11 11 11 11 11 11 11 11 11 11 11 11 11 11 11 10 10 10 9 9 9 9
12 12 12 12 13 13 12 12 13 13 13 13 13 13 13 13 13 13 13 13 13 13 13 13 13 13 13 13 13 12 12 12 12 12 12 12 12 12 13 12 12 12 12 12 12 12 11 11 11 11 11 11 11 11 11 11 11 11 11 10 10 10 10 9 9 9 9 9 9
13 13 13 13 13 13 13 13 13 13 13 13 13 13 13 13 13 13 13 13 13 13 13 13 13 13 13 13 13 12 12 12 12 12 12 12 12 12 12 12 12 12 12 12 12 11 11 11 11 11 11 11 11 11 11 11 11 10 10 10 10 10 9 9 9 9 8 8 8
12 13 13 13 13 13 13 13 13 13 13 13 13 13 13 13 13 13 13 13 13 13 13 13 13 13 13 13 12 12 12 12 12 12 12 12 12 12 12 12 12 12 12 12 11 11 11 11 11 11 11 11 11 11 11 11 10 10 10 10 9 9 9 9 9 8 8 8 8
12 12 13 13 13 13 13 13 13 13 13 13 13 13 13 13 13 13 13 13 13 13 13 13 13 13 13 12 12 12 12 12 12 12 12 12 12 12 12 12 12 12 12 12 11 11 11 11 11 11 11 11 11 11 10 10 10 10 9 9 9 9 9 9 8 9 8 8 8
13 13 13 13 13 13 13 13 13 13 13 13 13 13 13 13 13 13 13 13 13 13 12 12 12 12 12 12 12 12 12 12 12 12 11 12 12 12 12 12 12 12 12 11 11 11 11 11 11 11 11 11 10 10 10 10 9 9 9 9 9 9 9 9 9 9 9 9 9
13 13 13 13 13 13 13 13 13 13 13 13 13 13 13 13 13 13 13 12 12 12 12 12 12 12 12 12 12 12 11 11 11 11 11 11 11 12 12 12 12 11 11 11 11 11 11 11 10 10 10 10 10 10 10 9 9 9 9 9 9 9 9 9 9 9 8 8 8
13 13 13 13 13 13 13 13 13 13 13 13 13 13 13 13 13 12 12 12 12 12 12 12 11 11 11 11 11 11 11 11 11 11 11 11 11 11 11 11 11 11 11 11 11 11 11 10 10 10 10 10 9 9 9 9 9 9 9 9 8 8 8 8 8 8 8 8 8
13 13 13 13 13 13 13 13 13 13 13 13 13 13 13 13 12 12 12 12 11 11 11 11 11 11 11 11 11 11 11 11 11 11 11 11 11 11 11 11 11 11 11 11 11 11 10 10 10 10 10 9 9 9 9 9 8 8 8 8 8 8 8 8 8 8 8 7 7
13 13 13 13 13 13 13 14 14 13 13 13 13 13 13 12 12 12 12 11 11 11 11 11 11 11 11 11 11 11 11 11 11 11 11 11 11 11 11 11 11 11 11 11 10 10 10 10 10 9 9 9 9 8 8 8 8 7 7 7 7 7 7 7 7 7 7 7 7
13 13 13 13 13 13 13 13 13 13 13 13 13 13 12 12 12 12 11 11 11 11 11 11 11 11 11 11 11 11 11 11 11 11 11 11 11 11 11 11 10 10 10 10 10 10 10 9 9 9 9 9 9 8 8 8 8 8 8 8 8 7 7 7 6 6 6 7 7
13 13 13 13 13 13 13 13 13 13 13 13 13 12 12 12 12 12 11 11 11 11 11 11 11 11 11 11 11 11 11 11 11 11 11 11 11 10 10 10 10 10 10 10 10 9 9 9 9 9 9 8 8 8 8 8 8 8 8 8 7 7 7 6 6 6 6 6 6
13 13 13 13 13 13 13 13 13 13 13 12 12 12 12 12 12 12 12 12 12 11 11 11 11 11 11 11 11 11 11 11 11 11 11 10 10 10 10 10 10 9 9 9 9 9 8 8 8 8 8 8 8 8 8 8 8 8 8 8 7 7 6 6 6 6 6 6 6
13 13 13 13 13 13 13 13 13 13 12 12 12 12 12 12 12 12 12 12 12 12 12 12 12 12 12 12 11 11 11 11 11 10 10 10 10 10 9 9 9 9 9 8 8 8 8 8 8 8 8 8 8 8 8 8 8 8 8 7 7 7 6 6 6 5 5 5 5
13 13 13 13 13 13 13 13 13 13 12 12 12 12 12 12 12 12 12 12 12 12 12 12 12 12 12 12 11 11 11 11 10 10 10 10 9 9 9 9 8 8 8 8 8 8 8 8 8 8 8 8 8 7 7 7 7 7 7 7 7 7 6 5 5 5 5 5 4
13 13 13 13 13 13 13 13 13 12 12 12 12 12 12 12 12 12 12 12 12 12 12 12 12 12 11 11 11 11 10 10 10 9 9 9 8 8 8 8 8 8 8 8 8 8 8 8 8 8 8 8 8 7 7 7 7 7 7 7 7 6 6 5 5 5 4 4 4
14 14 14 14 13 13 13 13 12 12 12 12 12 12 12 12 12 12 12 12 12 12 12 11 11 11 11 11 10 10 10 10 9 8 8 8 7 7 7 8 8 8 8 8 8 8 8 8 8 8 8 8 7 7 7 7 7 7 7 7 6 6 5 5 5 5 5 5 4
14 14 14 13 13 13 13 12 12 12 12 12 12 11 11 11 11 11 11 11 11 11 11 11 11 11 10 10 10 10 10 9 9 8 7 7 7 7 8 8 8 8 8 8 8 8 8 8 8 7 7 7 7 7 7 7 6 6 6 6 6 6 5 5 5 5 5 4 4
14 14 13 13 13 13 12 12 12 12 12 11 11 11 11 11 11 11 11 11 11 11 10 10 10 10 10 10 10 9 9 9 8 8 7 7 7 8 8 8 8 8 8 8 8 8 8 8 8 7 7 7 7 6 6 6 6 6 6 6 6 5 5 5 5 5 5 4 4
14 14 13 13 13 13 12 12 12 12 11 11 11 11 11 10 10 10 10 10 10 10 10 9 9 9 9 9 9 9 9 8 8 8 8 7 7 8 8 8 8 8 8 8 8 8 8 8 7 7 7 7 6 6 6 6 6 6 6 6 6 6 5 5 5 5 5 5 5
14 13 13 13 13 13 12 12 12 11 11 11 11 11 11 10 10 10 10 10 10 10 9 9 9 8 8 8 8 8 8 8 8 8 8 7 7 7 8 8 8 8 8 8 8 8 8 8 7 7 7 6 6 6 6 6 6 6 6 6 6 6 6 6 5 5 5 5 5
14 13 13 13 13 13 12 12 12 12 12 12 11 11 11 10 10 10 10 10 10 10 9 9 9 8 8 8 8 8 8 8 8 8 8 8 8 8 8 8 8 8 8 8 8 8 8 8 7 7 7 6 6 6 6 6 6 6 6 6 6 6 6 6 6 6 5 5 5
14 14 13 13 13 13 13 12 12 12 12 12 12 11 11 10 10 10 10 10 10 9 9 9 9 8 8 8 8 7 8 8 8 8 8 8 8 8 8 8 8 8 8 8 8 8 8 8 7 7 7 6 6 6 6 6 6 6 6 6 6 6 6 6 6 6 5 5 5
14 14 14 13 13 13 13 12 12 12 12 12 11 11 10 10 10 10 10 9 9 9 9 9 9 8 8 7 7 8 8 8 8 8 8 8 8 8 8 8 8 8 8 8 8 8 8 8 7 7 6 6 6 6 6 6 6 6 6 6 6 6 6 6 6 5 5 5 5
14 14 14 13 13 13 13 12 12 12 12 11 11 10 10 10 10 10 10 10 9 9 9 9 9 9 8 7 7 8 8 8 8 8 8 8 8 8 8 8 8 8 8 8 8 8 8 7 7 7 6 6 6 6 6 6 6 6 6 6 6 6 6 6 5 5 5 5 5
14 14 14 13 13 13 13 13 12 12 12 11 10 9 9 9 9 10 10 10 10 9 9 9 9 9 8 8 8 8 8 8 8 8 8 8 8 8 8 8 8 8 8 8 8 8 8 7 7 7 6 6 6 6 6 6 6 6 6 6 6 6 5 5 5 5 5 5 4
14 14 13 13 13 13 13 13 12 12 11 11 10 9 9 9 9 10 10 10 10 9 9 9 9 9 8 8 8 8 8 8 8 8 7 7 8 8 8 8 8 8 8 8 8 8 8 7 7 7 6 6 6 6 6 6 6 6 6 6 5 5 5 5 5 5 4 4 4
14 14 13 13 13 13 13 13 12 12 11 10 10 10 10 10 10 10 10 10 9 9 9 9 9 8 8 8 8 8 8 8 8 8 8 8 8 8 8 8 7 7 8 8 8 8 8 7 7 7 6 6 6 6 5 5 5 5 5 5 5 5 5 5 5 4 4 4 4
14 14 14 13 13 13 13 12 12 12 11 11 10 10 10 9 9 10 10 10 9 9 9 9 9 8 8 8 8 8 8 8 8 8 8 8 8 8 8 7 7 7 7 8 8 8 7 7 7 6 6 6 5 5 5 5 5 5 5 5 5 5 5 5 4 4 4 4 4
14 14 14 13 13 13 13 12 12 11 11 11 10 10 10 9 9 10 10 10 9 9 9 9 8 8 8 8 8 8 8 8 8 8 8 7 8 8 8 7 7 7 7 7 7 7 7 7 6 6 6 5 5 5 5 5 5 5 5 5 5 5 4 4 4 4 4 4 4
14 14 13 13 13 13 13 12 12 11 11 11 10 10 9 9 10 10 10 9 9 8 8 8 8 8 8 8 8 8 8 8 8 8 7 7 8 8 8 8 7 7 7 7 7 7 7 6 6 6 6 5 5 5 5 4 4 4 4 4 4 4 4 4 4 4 4 3 3
14 14 13 13 13 13 13 13 12 12 11 11 10 10 9 9 9 10 10 9 9 8 8 8 8 8 8 9 9 9 8 8 8 7 7 7 8 8 8 8 7 7 7 7 7 7 7 6 6 6 6 5 5 5 5 4 4 4 4 4 4 4 4 4 4 3 3 3 3
14 14 13 13 13 13 13 13 12 12 12 11 10 10 10 9 9 9 10 9 9 8 8 8 8 8 9 9 9 9 8 8 7 7 7 7 7 7 7 7 7 7 7 7 7 7 6 6 6 6 6 5 5 5 5 4 4 4 4 4 4 4 4 3 3 3 2 2 2
14 14 13 13 13 13 13 12 12 12 12 12 11 10 10 9 9 9 9 9 9 9 8 8 9 9 9 9 9 8 8 7 7 7 7 7 7 7 7 7 7 7 7 7 7 6 6 6 6 6 5 5 5 5 5 4 4 4 4 4 4 3 3 3 2 2 2 2 2
14 13 13 13 13 13 12 12 12 12 12 12 11 10 10 10 9 9 9 9 9 9 8 9 9 9 9 8 8 7 7 7 7 7 7 7 7 7 7 7 7 7 7 7 7 6 6 6 6 5 5 5 5 5 5 4 4 4 4 3 3 3 2 2 2 2 2 2 1
14 13 13 12 12 12 12 12 12 12 12 12 11 11 10 10 10 10 10 9 9 8 8 8 8 8 8 8 8 7 7 7 7 7 7 7 7 7 7 7 7 7 7 7 7 6 6 6 5 5 5 5 5 5 5 4 4 3 3 3 2 2 2 2 2 2 1 1 1
13 13 12 12 12 12 12 12 12 12 12 12 11 11 10 10 10 10 10 9 9 8 8 8 8 8 8 8 8 7 7 7 7 7 7 7 7 7 7 7 7 7 7 7 7 6 6 6 5 5 5 5 5 5 4 4 3 3 3 2 2 2 2 1 1 1 1 1 1
Height
1483 1484 1486 1487 1488 1489 1491 1492 1493 1494 1496 1497 1498 1499 1500 1501 1502 1503 1504 1505 1506 1507 1508 1509 1511 1512 1514 1514 1516 1517 1518 1519 1520 1521 1522 1523 1524 1525 1526 1527 1528 1529 1529 1530 1531 1531 1532 1533 1534 1534 1535 1536 1537 1538 1538 1538 1539 1539 1540 1540 1540 1541 1541 1542 1542 1542 1543 1543 1544
1483 1484 1485 1486 1488 1489 1490 1491 1493 1494 1495 1496 1497 1498 1499 1500 1501 1502 1503 1504 1505 1507 1508 1509 1510 1512 1513 1514 1515 1516 1517 1518 1519 1520 1521 1522 1524 1524 1525 1526 1527 1528 1528 1529 1530 1530 1531 1532 1532 1533 1534 1535 1535 1536 1537 1537 1537 1538 1539 1539 1539 1540 1540 1540 1541 1541 1542 1542 1542
1482 1483 1484 1485 1487 1488 1489 1490 1491 1493 1494 1495 1496 1498 1499 1500 1501 1502 1503 1504 1505 1506 1507 1508 1509 1511 1512 1513 1514 1515 1516 1518 1519 1519 1521 1522 1523 1523 1524 1525 1526 1526 1527 1528 1528 1529 1530 1530 1531 1532 1533 1533 1534 1535 1535 1535 1536 1537 1537 1538 1538 1538 1539 1539 1540 1540 1541 1541 1541
1481 1482 1483 1484 1485 1486 1488 1489 1490 1491 1493 1494 1495 1497 1498 1499 1500 1501 1502 1503 1504 1505 1506 1507 1509 1510 1511 1512 1513 1514 1516 1517 1518 1519 1519 1520 1521 1522 1523 1524 1524 1525 1526 1526 1527 1528 1528 1529 1530 1531 1531 1532 1533 1533 1534 1534 1535 1535 1536 1536 1537 1537 1538 1538 1539 1539 1539 1540 1540
1479 1481 1482 1483 1484 1485 1487 1488 1489 1490 1492 1493 1494 1495 1496 1497 1499 1499 1501 1502 1503 1504 1505 1506 1508 1509 1510 1511 1512 1514 1514 1516 1517 1518 1519 1519 1520 1521 1521 1522 1523 1524 1524 1525 1525 1526 1527 1528 1529 1529 1530 1531 1531 1532 1533 1533 1534 1534 1534 1535 1535 1536 1536 1537 1537 1538 1538 1538 1539
1478 1479 1481 1482 1483 1484 1486 1487 1488 1489 1490 1492 1493 1494 1494 1496 1497 1498 1499 1500 1501 1503 1504 1505 1507 1508 1509 1510 1511 1512 1513 1514 1515 1516 1517 1518 1519 1519 1520 1521 1521 1522 1523 1523 1524 1525 1526 1527 1528 1528 1529 1529 1530 1530 1531 1532 1532 1533 1533 1534 1534 1534 1535 1536 1536 1537 1537 1537 1537
1477 1478 1479 1481 1482 1483 1484 1486 1487 1488 1489 1490 1491 1492 1493 1494 1495 1496 1498 1499 1500 1502 1503 1504 1505 1506 1507 1509 1509 1511 1512 1513 1514 1515 1516 1516 1517 1518 1519 1519 1520 1520 1521 1522 1522 1523 1524 1525 1526 1527 1527 1528 1528 1529 1529 1530 1531 1531 1532 1532 1533 1533 1534 1534 1535 1535 1535 1535 1536
1476 1477 1478 1479 1481 1482 1483 1484 1485 1486 1487 1488 1489 1490 1491 1493 1494 1495 1497 1498 1499 1500 1502 1503 1504 1505 1506 1507 1508 1509 1510 1511 1512 1513 1514 1514 1515 1516 1517 1517 1518 1519 1519 1520 1521 1522 1523 1524 1524 1525 1525 1526 1527 1527 1528 1529 1529 1530 1530 1531 1531 1532 1533 1533 1533 1534 1534 1534 1534
1474 1476 1477 1478 1479 1480 1482 1483 1484 1485 1485 1486 1487 1489 1490 1491 1493 1494 1495 1496 1498 1499 1500 1501 1502 1504 1504 1505 1506 1508 1509 1509 1510 1511 1512 1513 1514 1514 1515 1515 1516 1517 1518 1519 1519 1520 1521 1522 1523 1524 1524 1524 1525 1526 1527 1527 1528 1529 1529 1529 1530 1530 1531 1531 1531 1532 1532 1532 1532
1473 1474 1475 1477 1478 1479 1480 1482 1483 1483 1484 1485 1486 1488 1489 1490 1491 1492 1494 1495 1496 1497 1499 1499 1501 1502 1503 1504 1504 1506 1507 1508 1509 1509 1510 1511 1512 1512 1513 1514 1514 1515 1516 1517 1518 1519 1520 1521 1521 1522 1522 1523 1524 1524 1525 1526 1526 1527 1527 1528 1528 1529 1529 1529 1529 1530 1530 1530 1530
1472 1473 1474 1475 1476 1478 1479 1480 1481 1482 1483 1484 1485 1486 1487 1489 1490 1491 1492 1494 1495 1495 1496 1498 1499 1500 1501 1502 1503 1504 1504 1505 1506 1507 1508 1509 1509 1510 1511 1512 1513 1514 1514 1515 1516 1518 1518 1519 1520 1520 1521 1522 1523 1523 1524 1524 1525 1525 1526 1526 1527 1527 1527 1527 1528 1528 1528 1528 1528
1470 1472 1473 1474 1475 1476 1478 1479 1479 1480 1481 1482 1483 1484 1486 1487 1488 1490 1491 1492 1493 1494 1495 1496 1497 1498 1499 1499 1500 1501 1502 1503 1504 1505 1506 1506 1507 1508 1509 1510 1511 1512 1513 1514 1515 1516 1517 1518 1519 1519 1520 1521 1521 1522 1523 1523 1524 1524 1524 1525 1525 1525 1525 1526 1526 1526 1526 1526 1526
1469 1470 1472 1473 1474 1475 1476 1477 1478 1479 1479 1480 1482 1483 1484 1485 1487 1488 1489 1490 1491 1492 1493 1494 1495 1496 1497 1497 1498 1499 1500 1501 1502 1503 1503 1504 1504 1505 1507 1508 1509 1510 1511 1512 1514 1514 1515 1516 1517 1518 1519 1519 1520 1521 1521 1522 1522 1522 1523 1523 1524 1524 1524 1524 1525 1525 1525 1525 1525
1468 1469 1470 1471 1472 1473 1474 1475 1476 1477 1478 1479 1480 1481 1483 1484 1485 1486 1487 1488 1489 1490 1491 1492 1493 1494 1494 1495 1496 1497 1498 1499 1499 1500 1501 1502 1502 1503 1504 1506 1507 1508 1510 1511 1512 1513 1514 1515 1516 1516 1517 1518 1518 1519 1519 1519 1520 1520 1521 1521 1522 1522 1523 1523 1523 1524 1523 1523 1523
1467 1468 1469 1470 1471 1471 1472 1473 1474 1475 1476 1477 1479 1480 1481 1482 1483 1484 1485 1487 1488 1489 1489 1490 1491 1492 1493 1493 1494 1495 1496 1497 1497 1498 1499 1499 1500 1502 1503 1504 1506 1507 1508 1509 1510 1511 1512 1513 1514 1514 1515 1516 1516 1517 1517 1518 1518 1519 1519 1519 1520 1520 1520 1521 1521 1521 1522 1522 1522
1465 1466 1467 1468 1469 1469 1470 1471 1472 1473 1474 1475 1477 1478 1479 1480 1481 1483 1484 1485 1486 1487 1488 1488 1489 1490 1491 1491 1492 1493 1494 1495 1496 1496 1497 1498 1499 1501 1502 1504 1505 1506 1507 1508 1509 1509 1510 1511 1512 1513 1514 1514 1514 1515 1516 1516 1517 1517 1518 1518 1518 1518 1518 1518 1519 1519 1520 1520 1520
1463 1464 1465 1466 1467 1468 1468 1469 1470 1471 1472 1474 1475 1476 1477 1479 1479 1480 1482 1483 1484 1485 1486 1486 1487 1488 1489 1489 1490 1491 1492 1493 1494 1495 1496 1497 1499 1500 1502 1503 1504 1505 1506 1506 1507 1508 1509 1509 1510 1511 1511 1512 1512 1513 1514 1514 1514 1514 1515 1515 1515 1515 1515 1516 1516 1517 1518 1518 1518
1461 1462 1463 1464 1465 1466 1467 1468 1469 1470 1471 1472 1473 1474 1475 1477 1478 1479 1479 1481 1482 1483 1484 1484 1485 1486 1487 1488 1489 1489 1490 1491 1492 1493 1494 1496 1498 1499 1501 1502 1504 1504 1505 1505 1506 1507 1507 1507 1508 1509 1509 1510 1511 1511 1511 1511 1511 1512 1512 1512 1512 1512 1512 1513 1514 1514 1515 1515 1515
1459 1460 1461 1462 1463 1464 1465 1466 1467 1468 1469 1470 1471 1472 1474 1474 1476 1477 1478 1479 1480 1481 1482 1483 1483 1484 1484 1486 1487 1488 1489 1489 1491 1492 1494 1495 1496 1498 1499 1501 1502 1503 1504 1504 1504 1504 1505 1505 1506 1506 1507 1508 1508 1508 1508 1508 1509 1509 1509 1509 1509 1509 1509 1510 1511 1512 1513 1513 1513
1457 1458 1459 1460 1461 1462 1463 1464 1466 1467 1468 1469 1470 1471 1472 1473 1474 1475 1476 1477 1478 1479 1480 1481 1481 1482 1483 1484 1485 1486 1487 1488 1489 1491 1493 1494 1495 1496 1498 1499 1500 1501 1502 1502 1502 1503 1503 1503 1504 1504 1504 1505 1505 1506 1506 1506 1506 1506 1506 1506 1507 1507 1507 1508 1509 1509 1510 1510 1510
1455 1456 1457 1458 1459 1461 1462 1463 1464 1465 1467 1468 1469 1469 1470 1471 1472 1473 1474 1475 1476 1477 1478 1479 1479 1480 1481 1482 1483 1484 1485 1487 1488 1490 1491 1493 1493 1494 1496 1497 1499 1500 1500 1501 1501 1501 1501 1501 1502 1502 1502 1503 1503 1503 1504 1504 1504 1504 1504 1504 1504 1505 1505 1506 1507 1507 1508 1508 1508
1453 1454 1456 1457 1459 1459 1461 1462 1463 1464 1465 1466 1467 1468 1469 1470 1471 1471 1472 1474 1474 1475 1476 1477 1478 1478 1479 1480 1481 1483 1484 1485 1487 1489 1489 1490 1491 1492 1494 1496 1498 1499 1499 1499 1499 1499 1499 1500 1500 1500 1501 1501 1501 1501 1501 1501 1502 1502 1502 1502 1503 1503 1504 1504 1505 1506 1506 1506 1507
1451 1453 1454 1456 1457 1459 1460 1461 1462 1463 1464 1465 1466 1467 1468 1469 1469 1470 1471 1472 1473 1474 1475 1475 1476 1477 1478 1479 1480 1481 1482 1483 1485 1487 1488 1488 1489 1490 1493 1495 1496 1497 1497 1498 1498 1498 1498 1498 1499 1499 1499 1499 1500 1500 1500 1500 1500 1500 1501 1501 1502 1502 1503 1504 1504 1505 1505 1505 1505
1450 1452 1454 1455 1457 1458 1459 1460 1461 1462 1463 1464 1465 1465 1466 1467 1468 1469 1470 1471 1472 1473 1474 1474 1475 1476 1477 1478 1479 1479 1480 1481 1483 1485 1486 1487 1488 1489 1492 1493 1494 1495 1496 1496 1496 1497 1497 1498 1498 1498 1498 1499 1499 1499 1499 1499 1499 1500 1500 1501 1501 1502 1502 1503 1503 1504 1504 1504 1505
1450 1452 1453 1454 1455 1456 1457 1458 1459 1460 1461 1462 1463 1464 1465 1466 1467 1468 1469 1470 1471 1471 1472 1473 1474 1475 1476 1477 1477 1478 1479 1479 1481 1483 1485 1486 1487 1489 1490 1491 1492 1493 1494 1494 1495 1495 1496 1497 1497 1497 1497 1497 1498 1498 1498 1499 1499 1499 1500 1500 1501 1501 1502 1502 1502 1503 1503 1503 1503
1449 1451 1452 1453 1454 1454 1455 1456 1457 1458 1459 1460 1461 1462 1463 1464 1465 1467 1468 1469 1469 1470 1470 1471 1472 1473 1474 1474 1475 1476 1477 1478 1479 1481 1483 1484 1486 1487 1488 1489 1489 1491 1492 1492 1493 1494 1495 1496 1496 1496 1496 1496 1496 1497 1497 1498 1499 1499 1499 1500 1500 1500 1501 1501 1501 1501 1502 1502 1502
1447 1449 1449 1450 1451 1452 1453 1454 1454 1455 1456 1457 1458 1459 1461 1462 1464 1465 1467 1468 1468 1469 1469 1470 1470 1471 1472 1472 1473 1474 1475 1477 1478 1479 1481 1482 1484 1485 1486 1487 1487 1488 1489 1490 1491 1492 1494 1494 1494 1494 1495 1495 1495 1495 1496 1497 1498 1498 1499 1499 1499 1499 1499 1500 1500 1500 1500 1500 1501
1444 1446 1447 1448 1449 1450 1451 1452 1453 1453 1453 1453 1454 1454 1456 1458 1460 1463 1465 1466 1467 1468 1468 1469 1469 1469 1469 1470 1471 1472 1474 1475 1477 1479 1480 1481 1482 1482 1483 1484 1485 1486 1487 1488 1489 1491 1492 1492 1493 1493 1493 1493 1494 1494 1495 1495 1496 1497 1497 1498 1498 1498 1498 1499 1499 1499 1499 1499 1499
1442 1444 1445 1446 1447 1448 1449 1450 1451 1451 1452 1452 1452 1452 1452 1453 1455 1458 1461 1464 1465 1465 1466 1466 1466 1466 1466 1467 1468 1470 1472 1474 1476 1477 1478 1479 1480 1480 1481 1482 1483 1484 1485 1486 1487 1489 1490 1490 1491 1491 1491 1492 1492 1492 1493 1494 1494 1495 1496 1496 1497 1497 1497 1497 1497 1498 1498 1498 1498
1440 1441 1443 1444 1445 1446 1447 1448 1449 1449 1450 1451 1452 1452 1453 1453 1454 1456 1458 1460 1461 1461 1462 1462 1463 1463 1463 1464 1466 1468 1470 1472 1474 1475 1477 1477 1478 1479 1479 1480 1481 1482 1483 1484 1485 1486 1488 1488 1489 1489 1489 1490 1490 1491 1492 1492 1493 1494 1494 1494 1495 1495 1495 1496 1496 1496 1496 1496 1496
1438 1440 1441 1442 1443 1444 1444 1445 1446 1447 1448 1449 1451 1453 1454 1455 1455 1457 1458 1459 1459 1459 1459 1459 1459 1459 1460 1462 1464 1466 1468 1470 1472 1474 1474 1475 1476 1477 1478 1479 1479 1480 1481 1482 1483 1484 1485 1486 1487 1487 1488 1488 1489 1489 1490 1490 1491 1492 1492 1493 1493 1494 1494 1494 1494 1494 1494 1494 1495
1436 1438 1439 1440 1441 1442 1443 1444 1444 1445 1446 1448 1450 1452 1454 1455 1454 1455 1456 1457 1457 1457 1458 1457 1457 1458 1459 1460 1462 1464 1466 1468 1470 1471 1472 1474 1475 1476 1477 1477 1478 1479 1479 1480 1481 1482 1483 1484 1484 1485 1486 1487 1487 1488 1488 1489 1489 1490 1490 1491 1491 1492 1492 1492 1492 1493 1493 1493 1493
1435 1436 1438 1439 1440 1441 1442 1442 1443 1444 1445 1447 1448 1450 1452 1452 1452 1453 1454 1454 1454 1454 1455 1455 1456 1457 1458 1459 1461 1462 1464 1465 1467 1469 1470 1472 1473 1474 1475 1475 1476 1477 1478 1478 1479 1480 1481 1482 1483 1484 1484 1485 1486 1486 1487 1487 1488 1488 1489 1489 1489 1490 1490 1490 1491 1491 1491 1491 1491
1434 1435 1436 1437 1439 1439 1440 1441 1441 1442 1444 1445 1447 1449 1449 1450 1450 1451 1452 1451 1451 1452 1453 1454 1455 1456 1457 1459 1460 1461 1462 1464 1465 1467 1469 1470 1472 1473 1473 1474 1474 1475 1476 1476 1477 1478 1479 1480 1481 1482 1483 1484 1484 1484 1485 1485 1486 1486 1486 1487 1488 1488 1489 1489 1489 1489 1489 1489 1490
1432 1433 1434 1436 1437 1438 1438 1439 1440 1441 1442 1444 1446 1448 1448 1449 1449 1450 1450 1449 1449 1450 1451 1452 1454 1455 1456 1457 1459 1459 1460 1462 1463 1465 1467 1469 1470 1471 1472 1472 1473 1474 1474 1475 1475 1476 1477 1478 1479 1480 1481 1482 1482 1483 1483 1484 1484 1484 1485 1485 1486 1486 1487 1487 1487 1488 1488 1488 1488
1430 1431 1432 1434 1435 1436 1437 1438 1438 1439 1441 1443 1445 1446 1447 1448 1449 1449 1449 1448 1448 1448 1449 1451 1452 1454 1455 1456 1457 1458 1459 1460 1461 1464 1465 1467 1469 1469 1470 1471 1471 1472 1473 1473 1474 1474 1475 1476 1477 1478 1479 1479 1480 1481 1481 1482 1482 1482 1483 1484 1484 1484 1485 1485 1486 1486 1486 1486 1486
1428 1429 1430 1432 1433 1434 1435 1436 1437 1438 1440 1442 1444 1445 1446 1447 1448 1449 1449 1448 1447 1448 1448 1450 1451 1453 1454 1455 1456 1456 1457 1458 1460 1462 1464 1465 1467 1468 1469 1469 1470 1470 1471 1471 1472 1472 1473 1474 1475 1476 1477 1478 1478 1479 1479 1480 1480 1481 1481 1482 1482 1483 1483 1484 1484 1484 1484 1484 1484
1427 1428 1429 1430 1431 1433 1434 1434 1436 1437 1439 1440 1442 1443 1444 1446 1447 1448 1448 1447 1447 1447 1448 1449 1450 1452 1453 1454 1455 1455 1456 1457 1459 1460 1462 1464 1465 1466 1467 1468 1468 1469 1469 1469 1470 1470 1471 1472 1473 1474 1475 1476 1476 1477 1477 1478 1478 1479 1479 1480 1481 1481 1482 1482 1482 1481 1481 1481 1481
1425 1427 1428 1429 1430 1431 1433 1434 1435 1436 1438 1439 1440 1441 1443 1444 1445 1446 1446 1446 1446 1447 1448 1449 1450 1451 1452 1453 1454 1455 1456 1457 1458 1459 1461 1463 1464 1465 1465 1466 1466 1467 1467 1467 1468 1469 1469 1470 1471 1472 1473 1474 1475 1475 1475 1476 1476 1477 1478 1479 1479 1479 1480 1479 1479 1479 1479 1479 1479
1425 1426 1427 1429 1430 1431 1432 1434 1435 1436 1437 1438 1439 1440 1442 1443 1444 1444 1444 1445 1446 1446 1447 1449 1449 1451 1452 1453 1454 1454 1455 1456 1457 1459 1460 1461 1462 1463 1464 1464 1464 1465 1465 1466 1467 1467 1468 1469 1470 1471 1471 1472 1473 1473 1474 1474 1475 1475 1476 1477 1477 1478 1477 1477 1477 1477 1477 1477 1477
1424 1426 1427 1428 1429 1431 1432 1434 1435 1436 1437 1438 1439 1440 1441 1442 1443 1443 1444 1444 1445 1446 1447 1448 1449 1450 1451 1452 1453 1454 1454 1455 1457 1458 1459 1460 1461 1462 1462 1463 1463 1463 1464 1464 1465 1466 1467 1468 1468 1469 1470 1471 1471 1471 1472 1472 1473 1474 1474 1475 1475 1475 1475 1475 1475 1476 1476 1476 1476
Wind_Speed
29 29 30 31 32 32 32 33 33 33 33 33 33 32 32 33 33 34 34 34 34 34 34 34 33 33 33 33 33 33 32 32 32 32 31 31 30 30 30 29 29 28 27 27 27 26 26 26 26 26 27 27 27 27 27 28 28 28 28 28 28 28 27 27 27 27 26 26 26
27 27 28 29 29 30 31 31 32 32 33 33 33 33 33 33 33 34 34 34 34 34 34 34 33 33 33 33 32 32 32 32 32 31 31 31 30 30 30 29 29 28 28 27 27 27 27 27 27 27 27 27 27 27 28 28 28 28 28 28 28 28 28 27 27 27 26 26 26
25 25 26 27 28 28 29 30 30 31 31 32 32 33 33 34 34 34 34 34 34 34 34 34 34 33 33 33 32 32 32 31 31 31 31 31 31 30 30 30 29 29 28 28 28 28 27 27 27 27 27 27 27 28 28 28 29 28 28 28 28 28 28 27 27 27 26 26 25
24 24 25 26 26 27 28 28 28 29 29 30 31 32 33 34 34 35 35 35 35 35 35 34 34 33 33 33 32 32 32 31 31 31 31 31 31 31 30 30 30 29 29 29 29 28 28 28 28 28 28 28 28 28 28 28 29 29 29 29 29 28 28 27 27 26 26 25 25
24 24 24 25 25 25 26 26 26 27 27 28 29 30 31 32 33 34 35 36 36 35 35 34 34 33 33 33 33 32 32 32 31 31 31 31 31 31 31 30 30 30 30 29 29 29 29 28 28 28 28 28 28 28 28 29 29 29 29 29 28 28 27 26 26 25 25 24 25
23 24 24 24 24 24 25 25 26 26 26 27 27 28 29 30 31 32 34 35 35 35 34 34 34 34 33 33 33 32 32 32 32 32 32 32 32 32 31 31 31 31 30 30 30 29 29 28 28 28 28 29 29 29 29 29 29 28 28 28 28 27 26 25 24 24 24 24 24
23 23 24 24 24 24 25 25 25 25 26 26 27 27 27 27 28 29 31 32 33 33 34 34 34 34 34 33 33 32 32 32 32 32 32 32 32 32 32 32 31 31 31 31 30 30 29 29 28 28 29 29 29 29 29 29 28 28 28 27 27 26 24 23 23 23 22 23 23
24 24 24 24 24 24 25 25 25 25 26 26 26 26 25 25 26 27 28 29 30 32 33 33 34 34 34 33 33 33 32 32 32 32 33 33 33 33 33 33 32 32 32 31 31 30 29 29 29 29 29 29 29 29 29 28 28 27 26 26 25 24 23 22 22 22 22 22 23
25 25 25 25 25 25 25 25 25 26 26 26 25 24 24 24 24 25 25 26 28 29 30 32 33 33 34 34 34 33 33 33 33 33 33 33 34 34 34 34 33 33 33 32 31 30 30 29 29 29 29 30 29 29 29 28 27 26 25 24 23 22 22 21 21 21 21 22 22
25 25 25 25 25 25 25 25 26 26 26 26 25 24 24 24 24 24 24 25 26 27 29 30 31 32 33 33 33 33 33 33 33 33 33 34 34 35 35 35 34 34 33 32 31 31 30 29 29 29 30 29 29 28 27 26 25 25 24 23 22 22 21 21 21 21 21 21 21
25 25 25 25 25 25 25 26 26 26 26 26 26 25 25 24 24 24 24 24 25 26 27 28 29 30 31 31 32 32 32 32 32 33 33 34 35 35 35 35 35 35 34 33 32 31 30 30 29 29 29 28 28 27 26 25 24 24 23 23 22 21 20 20 20 20 20 20 20
25 25 25 25 25 25 25 26 26 26 27 27 26 26 25 25 25 24 25 25 26 26 27 27 28 28 29 29 30 30 31 31 31 32 33 34 34 35 35 36 35 35 34 33 33 32 31 30 29 28 27 27 26 25 24 24 23 23 22 21 20 19 19 19 19 19 19 20 20
26 26 25 25 25 25 26 26 27 27 27 27 27 27 26 26 26 26 26 27 27 27 27 27 28 28 28 28 28 29 29 29 30 31 32 33 34 35 35 35 35 35 34 33 32 31 30 29 28 27 26 25 24 23 22 22 21 20 19 18 18 18 18 19 20 20 21 22 22
26 26 26 26 26 26 27 27 27 28 28 28 27 27 27 27 27 27 27 28 28 28 28 28 28 28 28 28 28 28 28 28 29 30 30 32 33 33 34 34 34 33 33 32 31 30 29 28 27 26 24 23 21 20 19 19 18 18 18 19 20 22 23 25 26 26 26 25 25
28 28 27 27 27 27 28 28 28 28 29 29 28 28 28 28 28 28 28 28 28 28 28 28 28 28 28 28 28 28 28 28 29 29 30 30 31 31 31 31 31 30 29 28 28 27 26 25 24 22 21 20 19 20 21 22 23 25 27 28 31 32 34 35 35 34 32 29 27
29 29 29 29 29 29 29 29 29 29 29 29 29 29 28 28 28 28 28 28 28 28 28 28 28 28 28 28 28 28 28 28 29 29 29 29 29 28 27 26 25 24 23 22 21 20 20 19 19 19 20 21 23 25 29 33 35 36 37 38 40 41 42 43 42 40 36 31 27
30 30 30 30 30 30 30 29 29 29 29 29 29 29 28 28 28 28 28 27 27 27 27 27 28 28 28 28 28 28 28 29 29 29 29 28 27 25 22 20 18 16 15 14 14 15 16 17 19 22 24 26 28 31 36 39 41 41 41 41 42 43 43 43 41 38 34 30 26
32 31 31 31 31 31 30 30 30 30 30 30 29 29 29 28 28 28 27 27 27 26 26 27 27 28 28 28 28 28 28 29 29 28 28 26 24 21 18 15 13 12 11 12 14 17 20 23 26 28 30 31 33 35 37 40 41 41 41 41 41 40 39 37 36 34 31 29 26
33 32 32 32 31 31 31 31 30 30 30 30 30 30 29 29 28 28 28 27 27 27 26 27 27 28 28 28 28 28 28 28 28 27 25 24 22 19 17 15 14 14 16 18 20 23 26 28 29 30 32 33 33 34 36 37 38 39 39 39 37 35 33 31 31 30 30 29 27
33 33 33 32 32 32 31 31 31 31 31 30 30 30 30 29 29 28 28 28 27 27 27 27 27 28 28 28 27 27 27 27 25 24 23 22 21 20 20 20 21 22 23 23 24 26 27 28 28 29 29 29 29 30 31 32 33 34 34 33 31 29 28 27 28 28 27 26 25
34 34 33 33 33 32 32 32 31 31 31 30 30 30 30 29 29 29 29 28 27 27 27 27 27 28 28 27 26 26 26 25 24 23 22 21 21 22 24 25 25 24 24 24 25 26 26 27 26 25 24 23 23 23 23 24 25 26 25 24 23 22 22 23 22 22 20 19 18
35 35 34 34 33 33 32 32 31 31 30 30 29 29 29 29 29 28 28 27 27 27 27 27 27 27 27 26 25 25 25 25 24 24 24 24 25 26 26 25 24 23 23 23 24 24 23 22 21 20 19 18 17 16 16 16 17 17 17 16 16 15 15 15 14 13 12 11 10
36 35 34 34 33 32 32 31 30 30 29 29 28 28 28 28 28 27 26 26 26 25 26 26 26 26 25 25 24 24 24 25 25 25 25 26 26 27 26 24 22 21 21 22 22 21 20 18 17 16 15 13 11 10 9 9 9 10 10 9 9 9 9 9 8 7 6 6 5
36 35 34 33 32 32 31 30 30 29 28 28 28 28 28 27 27 26 25 24 24 23 23 23 23 23 23 23 24 24 25 26 27 28 28 27 26 25 24 22 20 19 19 21 21 20 18 17 15 14 12 10 8 7 6 6 7 7 7 7 7 7 8 8 8 8 7 7 7
36 36 35 34 33 32 32 31 30 29 28 27 28 28 28 28 27 26 25 24 23 23 23 23 22 22 23 23 24 25 26 27 29 30 29 27 25 24 22 21 20 20 21 21 21 19 18 16 14 12 10 9 7 7 7 8 9 9 10 10 10 10 10 11 11 10 10 10 10
37 36 35 35 35 34 33 32 31 29 28 27 27 28 29 29 28 27 25 24 24 25 24 24 22 22 22 23 24 24 25 26 28 29 28 26 25 24 23 22 21 22 22 22 21 20 18 15 13 10 9 8 7 7 8 8 9 11 12 13 13 13 13 12 12 11 11 11 12
38 38 37 37 37 36 35 34 32 31 29 28 28 29 30 30 29 27 25 23 22 22 23 23 23 23 23 24 24 24 24 24 25 25 24 23 23 23 22 22 21 21 22 22 22 21 19 16 13 10 9 9 8 8 8 9 10 11 12 13 14 14 13 12 11 10 11 11 13
40 40 40 39 38 38 37 36 34 33 32 31 31 31 32 33 31 27 23 21 21 23 24 26 25 25 25 25 24 24 23 22 22 22 22 22 21 21 20 19 19 19 21 23 23 22 20 16 13 11 10 10 10 10 11 11 11 12 13 13 13 13 13 12 11 11 12 13 15
42 41 41 40 39 39 38 37 36 35 33 32 32 33 35 35 32 28 24 26 28 29 31 32 32 30 28 27 25 22 21 20 21 21 21 21 20 19 18 18 18 19 22 24 24 22 19 16 14 12 11 11 11 12 13 13 14 14 13 14 14 13 13 13 13 13 14 15 16
43 43 42 42 41 41 40 39 38 37 35 33 33 33 33 32 28 24 22 25 28 30 32 34 35 34 31 29 25 21 19 19 18 19 19 19 19 18 18 17 18 20 23 24 24 22 19 16 14 13 12 12 12 14 15 15 15 15 15 15 15 15 15 15 15 15 16 17 18
44 43 41 42 42 42 42 41 40 39 37 34 32 30 27 25 21 19 20 23 25 27 29 32 33 33 32 29 24 20 17 16 16 16 17 17 18 18 18 18 19 21 23 24 23 21 18 16 14 13 12 13 14 15 16 17 17 17 17 17 16 16 16 16 16 17 18 18 19
45 43 42 42 42 42 43 42 42 40 38 35 32 27 22 20 17 17 20 24 26 27 28 29 30 30 29 26 22 18 15 14 14 15 15 16 17 17 18 18 18 19 20 21 21 19 17 16 15 14 13 14 15 16 17 18 18 18 18 18 18 18 18 18 18 18 19 20 21
45 44 44 43 42 43 43 43 43 41 39 37 32 26 22 20 16 17 22 26 27 28 29 29 28 27 26 23 19 16 14 13 13 14 14 16 17 17 16 15 15 17 18 20 20 19 18 17 16 15 15 15 16 17 18 18 19 19 19 19 19 19 19 19 19 20 20 21 22
45 45 44 44 43 44 44 45 44 43 41 38 31 24 19 17 16 19 22 24 24 25 26 27 27 25 22 18 15 13 12 12 12 13 15 16 17 17 16 15 15 17 18 19 20 19 18 17 16 16 16 16 17 17 18 19 19 20 20 20 20 20 20 20 20 21 21 22 22
45 44 44 44 44 45 46 46 44 43 42 37 29 22 18 16 16 18 21 22 20 20 22 24 24 21 18 14 12 11 11 11 12 14 15 17 17 17 17 16 17 17 18 19 19 18 17 17 17 17 17 17 18 18 18 19 19 20 20 20 20 20 20 21 21 21 22 22 23
44 44 44 44 44 45 46 47 46 45 42 36 27 21 17 15 15 17 20 20 18 16 17 19 20 19 16 14 13 12 11 11 13 15 16 18 18 18 18 17 17 18 18 18 18 17 17 17 17 18 18 18 18 18 19 19 19 20 20 20 20 20 21 21 21 22 22 23 23
43 43 43 43 44 44 46 47 47 47 43 36 27 21 18 15 14 16 18 19 17 15 15 16 17 17 16 14 13 12 11 11 13 16 18 19 19 19 18 18 18 18 18 18 17 16 16 17 17 18 18 18 19 19 19 19 19 20 20 20 21 21 21 21 21 22 22 22 23
41 42 42 42 43 44 45 46 46 45 43 38 29 22 18 16 15 16 17 18 17 15 13 14 14 14 14 14 13 13 13 13 15 18 19 20 20 19 19 19 18 18 18 17 17 16 16 17 18 18 18 19 19 20 20 19 19 20 20 20 21 21 21 21 21 22 22 23 23
38 39 40 41 41 42 43 44 44 43 42 38 30 24 20 18 17 17 18 18 16 14 12 12 12 12 13 13 13 14 15 16 18 19 20 21 21 21 20 19 19 19 18 17 17 16 17 18 18 19 19 20 20 20 20 20 19 19 20 20 20 20 21 21 22 23 23 24 24
35 36 37 38 39 40 41 41 41 40 39 36 29 24 21 20 19 19 18 17 15 12 10 10 10 11 12 12 14 15 17 18 19 20 21 22 22 22 21 20 20 19 19 18 17 17 18 18 19 20 20 21 21 21 20 20 19 19 19 19 20 20 21 22 23 23 24 23 23
31 33 34 35 36 37 38 39 38 37 35 32 27 23 21 20 19 20 19 17 14 11 9 9 10 11 12 13 14 15 16 16 17 18 20 22 23 23 22 21 20 20 20 19 19 19 19 19 20 20 21 21 21 21 20 19 19 18 19 19 20 20 21 22 23 23 23 22 21
Wind_Direction
219 219 219 220 220 221 221 221 221 222 222 222 221 221 220 220 220 220 221 221 222 223 224 226 227 228 229 230 231 232 233 234 236 237 238 238 238 237 237 236 235 235 234 234 234 235 236 237 239 241 242 243 245 246 247 248 250 251 253 254 256 257 258 259 260 261 262 263 263
220 221 222 223 224 225 225 226 226 226 226 226 226 226 226 226 225 225 225 225 226 227 227 229 229 230 231 233 234 235 236 237 238 239 239 239 239 238 238 237 236 235 235 234 235 236 237 238 239 241 242 243 244 245 247 248 250 251 253 254 256 257 258 259 260 261 262 263 264
221 222 223 224 226 227 228 228 229 229 229 230 230 230 230 231 231 230 230 230 230 230 230 231 232 233 234 236 237 238 238 239 240 241 241 240 240 239 238 237 236 235 235 235 235 236 237 238 240 241 242 243 244 245 247 248 250 251 253 254 256 257 258 259 260 261 262 263 264
223 224 224 226 227 228 229 231 231 232 233 233 233 233 234 234 234 234 234 234 233 233 233 234 235 236 237 238 239 240 240 241 242 242 242 241 240 240 239 238 237 236 236 235 236 236 237 238 239 241 242 243 244 245 247 249 250 252 253 255 256 257 258 259 260 261 262 263 264
227 227 228 229 230 231 233 234 235 236 236 237 237 237 237 237 237 237 237 236 236 236 236 236 237 238 240 240 241 242 242 242 243 243 242 242 241 240 239 239 238 237 237 236 236 237 237 238 239 241 242 244 245 246 247 249 250 252 254 255 256 257 258 259 260 261 263 264 266
231 231 232 233 234 235 236 237 238 239 240 240 240 241 240 239 239 239 239 238 238 239 239 239 240 241 242 243 243 244 244 243 243 243 243 242 242 241 240 239 239 238 238 237 237 237 238 239 240 241 243 244 245 246 247 249 250 252 254 255 256 258 259 260 261 263 264 266 268
236 236 236 237 238 238 238 239 240 241 242 243 243 243 243 242 242 242 242 242 242 241 241 241 242 243 244 245 245 245 245 245 245 244 243 243 242 242 241 240 240 239 239 239 239 239 239 240 241 242 244 245 246 247 248 249 251 253 254 256 258 259 260 262 263 265 266 268 270
241 241 241 241 241 242 242 242 242 243 244 244 244 245 245 245 245 245 245 245 245 244 244 244 244 245 246 247 247 247 247 247 246 245 244 244 243 243 242 241 241 241 241 241 241 241 241 241 242 243 245 246 247 249 250 251 252 254 256 258 259 261 262 264 265 267 269 271 273
243 243 244 244 244 244 244 244 245 245 246 246 246 246 247 247 247 247 248 247 247 247 247 247 247 247 248 248 249 249 249 249 248 247 246 245 244 244 243 243 242 242 242 242 242 242 242 243 244 245 246 247 249 250 251 253 254 256 258 260 261 263 264 266 268 270 272 274 276
244 245 245 245 246 246 245 246 246 246 247 247 248 248 248 248 248 249 249 250 250 250 250 250 250 250 250 250 251 251 251 250 250 249 247 246 245 245 244 244 244 244 244 244 244 244 244 245 245 246 248 249 250 252 253 255 257 259 261 262 264 266 268 270 271 273 275 277 278
246 247 248 248 248 247 247 247 246 247 247 247 248 248 248 249 249 250 251 252 252 253 253 253 253 253 253 253 253 253 253 252 252 251 249 248 247 246 246 246 246 245 246 246 246 246 246 246 247 248 250 252 253 255 257 259 261 263 265 267 268 270 271 273 275 276 278 279 280
248 250 251 251 251 250 249 248 247 246 246 247 247 248 248 249 250 251 252 253 254 255 255 255 255 256 256 256 256 255 255 254 254 252 251 250 249 248 247 247 247 247 247 248 248 248 248 249 250 252 254 256 258 260 263 265 267 268 269 270 271 273 274 276 278 280 281 281 281
249 251 252 253 253 252 250 248 247 247 247 247 247 248 249 251 252 252 253 254 255 255 256 256 257 257 258 258 258 258 257 257 256 254 253 252 251 250 249 249 249 249 250 250 251 252 253 253 255 256 258 261 263 265 267 269 269 269 269 271 273 275 277 280 282 283 283 283 282
249 250 251 252 252 251 250 249 249 248 248 249 249 250 251 252 253 253 253 254 255 255 256 257 257 258 259 259 259 259 259 258 257 256 255 254 253 252 251 251 252 252 253 255 256 257 258 259 259 260 261 263 265 267 268 269 268 269 270 273 276 278 280 282 283 284 283 283 282
248 249 251 251 251 251 251 250 250 250 250 251 251 252 253 253 254 254 254 255 255 256 256 257 258 259 259 259 259 260 259 259 258 257 256 255 255 254 254 254 255 256 258 259 260 261 261 261 261 261 262 263 266 270 272 273 273 275 276 278 279 280 280 281 281 281 281 280 280
247 248 249 250 250 250 251 251 251 252 252 253 253 254 254 254 255 255 256 256 256 257 257 258 259 260 260 260 260 260 259 259 259 258 258 258 257 258 258 258 258 259 259 260 260 260 261 261 262 264 267 271 274 275 275 274 273 273 273 273 273 273 274 274 275 276 276 276 276
247 248 248 249 249 250 251 251 252 253 253 254 255 255 255 255 256 257 257 258 259 259 260 261 261 261 262 262 261 261 260 260 260 259 260 260 260 260 260 259 257 255 254 255 257 259 263 267 271 274 276 276 276 274 271 269 268 268 268 269 269 268 268 268 269 270 271 271 271
246 247 247 248 249 250 251 252 252 253 254 254 255 256 256 256 257 259 260 261 261 262 263 263 264 264 264 264 264 263 262 261 261 261 261 261 261 260 256 250 247 246 251 259 266 271 272 273 274 275 274 272 270 267 266 265 266 266 267 268 268 268 267 265 265 265 265 265 265
245 246 247 247 249 250 251 252 252 252 253 254 255 256 257 258 259 261 262 263 264 265 265 265 265 266 266 266 265 264 263 262 261 261 261 261 259 253 245 240 243 252 263 271 274 275 273 270 267 266 265 264 263 262 262 263 264 265 266 267 267 266 264 262 261 261 261 262 262
244 245 246 247 248 250 250 251 251 252 252 253 254 255 257 259 261 262 264 265 266 266 266 266 267 267 267 267 265 263 262 261 259 258 258 258 254 249 247 249 256 263 269 270 269 267 266 265 264 262 261 262 262 262 262 263 265 266 267 267 266 265 263 261 260 261 263 265 266
244 245 246 247 248 248 249 250 250 251 251 251 253 255 257 259 260 262 264 265 266 267 267 267 268 268 267 266 264 261 259 258 254 253 252 252 251 252 257 261 264 267 268 267 266 265 266 266 266 265 264 264 266 267 267 268 269 269 269 268 268 266 264 263 263 263 265 267 268
243 244 245 245 246 246 247 248 249 249 249 250 251 253 255 256 257 259 261 263 264 265 266 267 267 267 267 266 264 261 258 255 251 249 248 248 251 257 263 266 267 267 267 268 268 268 268 268 267 267 267 269 271 271 271 270 269 268 267 267 266 265 263 262 261 261 263 266 270
242 242 243 243 243 244 245 246 247 247 247 248 248 249 250 251 252 253 255 258 260 262 264 265 266 266 266 265 263 260 256 253 251 249 247 247 251 257 263 265 266 267 268 268 268 268 267 267 267 267 268 269 270 270 269 267 265 263 262 260 258 256 255 254 254 257 263 272 279
242 241 241 241 242 242 243 243 243 242 242 243 244 244 244 244 243 244 246 249 253 255 257 259 261 263 263 261 259 256 254 253 253 252 250 248 249 254 259 262 263 265 265 265 265 265 266 267 267 267 265 262 262 265 270 272 270 267 262 258 254 252 253 254 258 265 273 279 283
241 240 240 240 240 240 240 239 238 237 238 240 241 241 239 237 235 235 236 239 243 247 250 252 254 256 256 254 253 252 252 254 256 256 253 247 246 250 254 256 259 261 261 260 261 262 264 266 265 261 256 253 255 262 269 271 270 268 265 262 260 260 261 262 265 270 275 279 283
240 239 239 239 239 238 236 235 234 234 236 239 241 240 237 233 230 229 231 235 239 243 247 248 250 250 250 249 248 249 251 254 257 257 253 246 247 250 253 253 254 256 258 258 260 261 261 261 256 250 245 246 252 260 266 267 266 264 263 263 263 264 266 268 271 275 280 283 286
238 237 237 237 237 236 234 233 232 232 233 235 237 236 234 231 228 227 229 235 242 248 251 251 249 247 246 245 245 246 249 252 254 253 250 247 251 254 255 253 251 252 255 258 260 260 258 253 245 238 238 245 252 258 262 264 264 263 263 263 264 265 267 270 275 280 285 286 286
236 236 235 235 235 235 234 233 231 230 230 230 229 227 226 225 225 227 234 247 256 260 262 260 256 250 245 242 241 243 247 250 251 249 249 252 257 258 255 250 248 250 255 259 260 259 255 246 237 234 238 245 252 257 261 265 267 267 266 265 264 265 267 271 276 280 283 284 284
236 236 235 234 234 233 232 230 228 227 226 225 222 221 220 221 221 227 241 255 258 257 257 259 259 254 247 240 239 241 246 249 250 250 252 255 257 256 250 244 244 249 255 259 260 259 253 241 233 232 238 245 252 257 261 265 268 269 269 267 266 266 268 270 274 276 279 280 281
237 236 235 234 233 233 231 229 227 225 223 221 217 214 213 213 214 222 237 248 249 248 249 252 252 250 246 241 239 240 245 249 250 250 251 253 253 249 244 242 245 251 256 259 260 259 251 238 231 233 240 248 255 260 263 265 267 268 270 270 270 271 271 273 274 275 276 278 279
237 234 232 233 232 231 230 228 226 224 221 218 212 209 209 209 211 220 234 243 246 246 246 246 245 243 241 240 238 239 244 248 248 246 246 247 246 244 243 245 250 254 256 259 260 258 249 237 232 235 244 254 261 264 265 266 267 268 270 272 273 274 274 275 275 275 276 276 277
237 234 231 230 230 229 228 226 223 221 218 214 210 214 224 228 225 229 238 244 248 248 247 245 242 239 237 235 235 238 243 245 243 240 239 240 241 242 244 247 253 257 259 261 262 260 252 241 238 242 251 260 265 267 267 266 267 268 270 271 273 273 273 273 273 274 274 275 276
237 235 233 230 228 227 226 223 221 219 217 213 212 221 239 249 242 240 245 248 248 247 246 245 243 238 234 233 234 238 241 242 238 233 232 234 237 240 244 249 256 262 264 264 265 263 257 248 245 249 256 261 264 266 266 266 266 267 268 269 270 270 270 270 271 271 273 274 275
237 235 233 231 228 226 225 223 221 219 217 215 215 221 232 242 243 248 252 252 248 245 243 243 242 240 238 238 240 242 242 237 230 226 227 231 235 240 245 252 260 265 266 266 265 263 257 250 248 249 254 257 259 260 261 262 263 264 265 266 267 267 267 268 269 270 272 274 276
237 235 234 231 229 227 225 224 221 219 218 217 218 222 228 233 242 252 257 258 253 245 239 239 240 241 241 244 248 248 241 229 221 220 224 230 236 242 249 256 262 265 266 267 264 260 254 248 246 247 250 253 254 255 256 258 259 261 262 263 264 265 265 267 269 270 272 274 275
236 235 234 232 230 228 226 225 224 222 221 219 219 222 227 232 240 251 258 261 257 247 238 235 236 238 241 244 247 245 237 225 218 219 224 232 239 245 251 257 262 265 266 266 263 257 251 246 245 246 248 251 253 254 254 255 257 258 260 261 262 264 265 266 268 270 271 271 271
236 235 234 233 231 229 227 226 225 224 223 222 220 220 223 227 235 245 254 257 254 246 239 236 237 239 243 245 244 239 233 227 221 222 226 233 240 246 252 256 261 264 264 263 259 254 248 245 244 245 248 251 253 254 254 254 255 256 258 260 262 263 264 266 266 266 266 266 265
236 235 234 233 231 229 227 226 226 225 225 224 222 220 221 223 229 239 248 251 249 244 241 240 241 243 246 246 242 235 228 224 222 223 226 233 239 245 249 253 257 260 260 259 254 249 245 243 243 245 248 251 253 253 252 252 253 255 257 259 261 262 262 262 261 260 259 258 258
235 234 233 232 230 228 227 226 225 226 226 227 224 222 222 224 228 237 246 249 248 246 244 244 243 243 243 242 238 231 225 221 220 221 225 231 237 241 245 249 254 256 257 255 251 247 244 243 244 246 248 251 252 251 250 250 251 253 255 256 257 257 257 255 254 254 254 254 254
234 233 232 230 229 228 226 226 226 227 228 229 226 224 224 226 230 237 244 246 246 245 243 242 239 238 237 235 233 230 227 225 224 224 226 230 235 239 244 248 253 256 257 256 253 250 247 246 247 248 250 251 251 250 249 248 248 249 250 250 250 249 248 248 249 250 251 251 252
231 230 229 228 228 228 227 227 228 229 230 230 227 224 224 227 233 237 240 241 240 238 234 231 230 229 228 229 231 233 234 233 232 232 232 233 236 240 245 249 254 258 261 261 258 254 251 250 251 252 253 253 252 251 249 247 245 243 242 242 242 242 242 244 245 247 249 250 251